Terug naar catalogus

OPS 4682 DEB

ActiefPO
NORAD 18270·DEBRIS·🇺🇸 United States

Gelanceerd Apr 3, 1965 vanaf Vandenberg Space Force Base

Loading…

Volgende Passages (komende 24 uur)

TLE

VersSource: Space-Track

Epoch: Sep 13, 2026, 07:01 UTC

1 18270U 65027Z   26256.29287669  .00000538  00000-0  18334-2 0  9995
2 18270  90.2386   1.5245 0029426 222.7884 163.0564 12.97212842928014

Volg OPS 4682 DEB in realtime met AllMySat

Download on the App Store